| time (UTC) | temp F | wind direction | speed MPH | gust MPH | rain 1hr in | rain 24hr in | rain mn in | humidity % | barometer mb |
| 20260504005431 | 73 | 41 | 1.0 | 5.0 | 0.00 | 0.22 | 0.22 | 72 | 1015.4 |
| 20260504004945 | 73 | 78 | 1.0 | 5.0 | 0.00 | 0.22 | 0.22 | 72 | 1015.4 |
| 20260504004443 | 73 | 99 | 1.0 | 4.0 | 0.00 | 0.22 | 0.22 | 73 | 1015.4 |
| 20260504003937 | 73 | 158 | 1.0 | 4.0 | 0.00 | 0.22 | 0.22 | 72 | 1015.4 |
| 20260504003433 | 73 | 52 | 1.0 | 6.0 | 0.00 | 0.22 | 0.22 | 72 | 1015.4 |
| 20260504002950 | 73 | 52 | 1.0 | 6.0 | 0.00 | 0.22 | 0.22 | 71 | 1015.2 |
| 20260504002439 | 73 | 44 | 2.0 | 5.0 | 0.00 | 0.22 | 0.22 | 71 | 1015.2 |
| 20260504001932 | 73 | 27 | 2.0 | 5.0 | 0.00 | 0.22 | 0.22 | 71 | 1015.2 |
| 20260504001441 | 73 | 68 | 1.0 | 4.0 | 0.00 | 0.22 | 0.22 | 72 | 1015.2 |
| 20260504000936 | 73 | 73 | 1.0 | 4.0 | 0.00 | 0.22 | 0.22 | 71 | 1015.2 |
| 20260504000433 | 73 | 65 | 1.0 | 7.0 | 0.00 | 0.22 | 0.22 | 70 | 1015.2 |
| 20260504000000 | 73 | 79 | 2.0 | 7.0 | 0.00 | 0.22 | 0.22 | 70 | 1015.0 |
| 20260503235436 | 73 | 32 | 2.0 | 4.0 | 0.00 | 0.22 | 0.22 | 69 | 1015.0 |
| 20260503234944 | 73 | 32 | 1.0 | 4.0 | 0.00 | 0.22 | 0.22 | 69 | 1015.0 |
| 20260503234441 | 73 | 72 | 2.0 | 4.0 | 0.00 | 0.22 | 0.22 | 69 | 1015.0 |
| 20260503233957 | 73 | 54 | 1.0 | 4.0 | 0.00 | 0.22 | 0.22 | 70 | 1015.0 |
| 20260503233444 | 73 | 55 | 1.0 | 5.0 | 0.00 | 0.22 | 0.22 | 70 | 1015.0 |
| 20260503232938 | 73 | 52 | 1.0 | 5.0 | 0.00 | 0.22 | 0.22 | 70 | 1014.8 |
| 20260503232503 | 73 | 60 | 1.0 | 5.0 | 0.00 | 0.22 | 0.22 | 70 | 1014.8 |
| 20260503231957 | 73 | 49 | 1.0 | 5.0 | 0.00 | 0.22 | 0.22 | 70 | 1014.8 |
| 20260503231459 | 73 | 35 | 3.0 | 5.0 | 0.00 | 0.22 | 0.22 | 70 | 1014.8 |
| 20260503230934 | 73 | 34 | 1.0 | 5.0 | 0.00 | 0.22 | 0.22 | 70 | 1014.8 |
| 20260503230447 | 73 | 38 | 1.0 | 5.0 | 0.00 | 0.22 | 0.22 | 70 | 1014.8 |
| 20260503225941 | 73 | 54 | 2.0 | 5.0 | 0.00 | 0.22 | 0.22 | 70 | 1014.8 |
| 20260503225438 | 73 | 69 | 3.0 | 5.0 | 0.00 | 0.22 | 0.22 | 70 | 1014.8 |
| 20260503224934 | 73 | 27 | 2.0 | 7.0 | 0.00 | 0.22 | 0.22 | 70 | 1014.8 |
| 20260503224458 | 73 | 48 | 2.0 | 9.0 | 0.00 | 0.22 | 0.22 | 70 | 1014.8 |
| 20260503223945 | 73 | 38 | 2.0 | 9.0 | 0.00 | 0.22 | 0.22 | 71 | 1014.8 |
| 20260503223442 | 73 | 32 | 1.0 | 3.0 | 0.00 | 0.22 | 0.22 | 69 | 1014.8 |
| 20260503222937 | 73 | 40 | 1.0 | 4.0 | 0.00 | 0.22 | 0.22 | 68 | 1014.9 |
| 20260503222434 | 73 | 49 | 2.0 | 5.0 | 0.00 | 0.22 | 0.22 | 69 | 1014.9 |
| 20260503221942 | 73 | 136 | 1.0 | 5.0 | 0.00 | 0.22 | 0.22 | 68 | 1014.9 |
| 20260503221438 | 73 | 58 | 1.0 | 5.0 | 0.00 | 0.22 | 0.22 | 69 | 1015.0 |
| 20260503220956 | 73 | 36 | 1.0 | 5.0 | 0.00 | 0.22 | 0.22 | 68 | 1015.0 |
| 20260503220447 | 73 | 34 | 1.0 | 4.0 | 0.00 | 0.22 | 0.22 | 67 | 1015.0 |
| 20260503215940 | 74 | 34 | 1.0 | 4.0 | 0.00 | 0.22 | 0.22 | 68 | 1014.9 |
| 20260503215435 | 74 | 25 | 2.0 | 5.0 | 0.00 | 0.22 | 0.22 | 68 | 1014.9 |
| 20260503214931 | 74 | 70 | 2.0 | 5.0 | 0.00 | 0.22 | 0.22 | 69 | 1014.9 |
| 20260503214441 | 74 | 37 | 2.0 | 5.0 | 0.00 | 0.22 | 0.22 | 69 | 1014.8 |
| 20260503213938 | 73 | 75 | 1.0 | 5.0 | 0.00 | 0.22 | 0.22 | 69 | 1014.8 |
| 20260503213434 | 73 | 59 | 1.0 | 2.0 | 0.00 | 0.22 | 0.22 | 70 | 1014.8 |
| 20260503212941 | 73 | 97 | 0.0 | 4.0 | 0.00 | 0.22 | 0.22 | 70 | 1014.9 |
| 20260503212436 | 73 | 31 | 2.0 | 5.0 | 0.00 | 0.22 | 0.22 | 69 | 1014.9 |
| 20260503211930 | 73 | 28 | 2.0 | 5.0 | 0.00 | 0.22 | 0.22 | 69 | 1014.9 |
| 20260503211444 | 73 | 9 | 1.0 | 3.0 | 0.00 | 0.22 | 0.22 | 69 | 1015.0 |
| 20260503210937 | 73 | 61 | 1.0 | 4.0 | 0.00 | 0.22 | 0.22 | 68 | 1015.0 |
| 20260503210440 | 73 | 36 | 1.0 | 4.0 | 0.00 | 0.22 | 0.22 | 68 | 1015.0 |
| 20260503205936 | 73 | 30 | 2.0 | 4.0 | 0.00 | 0.22 | 0.22 | 68 | 1015.3 |
| 20260503205438 | 73 | 73 | 1.0 | 4.0 | 0.00 | 0.22 | 0.22 | 68 | 1015.3 |
| 20260503205007 | 73 | 47 | 2.0 | 4.0 | 0.00 | 0.22 | 0.22 | 68 | 1015.3 |
| 20260503204439 | 73 | 39 | 1.0 | 4.0 | 0.00 | 0.22 | 0.22 | 69 | 1015.4 |
| 20260503203935 | 73 | 70 | 2.0 | 4.0 | 0.00 | 0.22 | 0.22 | 68 | 1015.4 |
| 20260503203444 | 73 | 51 | 2.0 | 4.0 | 0.00 | 0.22 | 0.22 | 69 | 1015.4 |
| 20260503202940 | 73 | 36 | 2.0 | 4.0 | 0.00 | 0.22 | 0.22 | 67 | 1015.4 |
| 20260503202456 | 73 | 97 | 2.0 | 4.0 | 0.00 | 0.22 | 0.22 | 69 | 1015.4 |
| 20260503201945 | 73 | 63 | 2.0 | 4.0 | 0.00 | 0.22 | 0.22 | 68 | 1015.4 |
| 20260503201441 | 73 | 70 | 2.0 | 4.0 | 0.00 | 0.22 | 0.22 | 69 | 1015.4 |
| 20260503200956 | 73 | 49 | 2.0 | 5.0 | 0.00 | 0.22 | 0.22 | 67 | 1015.4 |
| 20260503200449 | 74 | 43 | 2.0 | 5.0 | 0.00 | 0.22 | 0.22 | 68 | 1015.4 |
| 20260503195942 | 74 | 41 | 3.0 | 5.0 | 0.00 | 0.22 | 0.22 | 69 | 1015.4 |
| 20260503195438 | 74 | 34 | 2.0 | 4.0 | 0.00 | 0.22 | 0.22 | 69 | 1015.4 |
| 20260503194935 | 74 | 56 | 2.0 | 4.0 | 0.00 | 0.22 | 0.22 | 69 | 1015.4 |
| 20260503194432 | 74 | 41 | 2.0 | 4.0 | 0.00 | 0.22 | 0.22 | 68 | 1015.3 |
| 20260503193957 | 74 | 49 | 1.0 | 5.0 | 0.00 | 0.22 | 0.22 | 70 | 1015.3 |
| 20260503193439 | 74 | 33 | 2.0 | 5.0 | 0.00 | 0.22 | 0.22 | 69 | 1015.3 |
| 20260503192935 | 74 | 40 | 2.0 | 5.0 | 0.00 | 0.22 | 0.22 | 69 | 1015.8 |
| 20260503192433 | 74 | 360 | 2.0 | 6.0 | 0.00 | 0.22 | 0.22 | 70 | 1015.8 |
| 20260503191948 | 74 | 53 | 3.0 | 6.0 | 0.00 | 0.22 | 0.22 | 69 | 1015.8 |
| 20260503191501 | 74 | 73 | 1.0 | 7.0 | 0.00 | 0.22 | 0.22 | 71 | 1015.9 |
| 20260503190953 | 73 | 37 | 2.0 | 9.0 | 0.00 | 0.22 | 0.22 | 71 | 1015.9 |
| 20260503190429 | 73 | 13 | 1.0 | 5.0 | 0.00 | 0.22 | 0.22 | 72 | 1015.9 |
| 20260503185946 | 73 | 26 | 1.0 | 6.0 | 0.00 | 0.22 | 0.22 | 73 | 1016.3 |
| 20260503185442 | 72 | 66 | 2.0 | 6.0 | 0.00 | 0.22 | 0.22 | 75 | 1016.3 |
| 20260503184937 | 72 | 40 | 2.0 | 7.0 | 0.00 | 0.22 | 0.22 | 76 | 1016.3 |
| 20260503184505 | 72 | 21 | 3.0 | 7.0 | 0.00 | 0.22 | 0.22 | 75 | 1016.5 |
| 20260503183940 | 72 | 31 | 2.0 | 4.0 | 0.00 | 0.22 | 0.22 | 75 | 1016.5 |
| 20260503183437 | 72 | 46 | 2.0 | 4.0 | 0.00 | 0.22 | 0.22 | 76 | 1016.5 |
| 20260503182944 | 72 | 9 | 1.0 | 5.0 | 0.00 | 0.22 | 0.22 | 77 | 1016.8 |
| 20260503182437 | 72 | 44 | 2.0 | 10.0 | 0.00 | 0.22 | 0.22 | 76 | 1016.8 |
| 20260503181939 | 72 | 34 | 2.0 | 10.0 | 0.00 | 0.22 | 0.22 | 75 | 1016.8 |
| 20260503181452 | 72 | 39 | 1.0 | 4.0 | 0.00 | 0.22 | 0.22 | 76 | 1016.9 |
| 20260503181001 | 72 | 70 | 1.0 | 6.0 | 0.00 | 0.22 | 0.22 | 76 | 1016.9 |
| 20260503180435 | 72 | 49 | 2.0 | 9.0 | 0.00 | 0.22 | 0.22 | 76 | 1016.9 |
| 20260503175934 | 71 | 40 | 3.0 | 9.0 | 0.00 | 0.22 | 0.22 | 78 | 1016.9 |
| 20260503175440 | 71 | 39 | 1.0 | 4.0 | 0.00 | 0.22 | 0.22 | 79 | 1016.9 |
| 20260503174938 | 71 | 38 | 2.0 | 6.0 | 0.00 | 0.22 | 0.22 | 79 | 1016.9 |
| 20260503174432 | 71 | 45 | 2.0 | 6.0 | 0.00 | 0.22 | 0.22 | 79 | 1016.8 |
| 20260503173940 | 71 | 23 | 1.0 | 5.0 | 0.00 | 0.22 | 0.22 | 79 | 1016.8 |
| 20260503173436 | 71 | 24 | 2.0 | 5.0 | 0.00 | 0.22 | 0.22 | 79 | 1016.8 |
| 20260503173002 | 71 | 360 | 2.0 | 5.0 | 0.00 | 0.22 | 0.22 | 79 | 1016.7 |
| 20260503172438 | 72 | 41 | 2.0 | 5.0 | 0.00 | 0.22 | 0.22 | 79 | 1016.7 |
| 20260503171934 | 72 | 12 | 2.0 | 5.0 | 0.00 | 0.22 | 0.22 | 79 | 1016.7 |
| 20260503171431 | 72 | 46 | 1.0 | 5.0 | 0.00 | 0.22 | 0.22 | 76 | 1016.8 |
| 20260503170944 | 72 | 46 | 2.0 | 7.0 | 0.00 | 0.22 | 0.22 | 76 | 1016.8 |
| 20260503170439 | 72 | 57 | 2.0 | 10.0 | 0.00 | 0.22 | 0.22 | 74 | 1016.8 |
| 20260503150944 | 71 | 53 | 2.0 | 7.0 | 0.00 | 0.21 | 0.21 | 85 | 1016.9 |
| 20260503150438 | 71 | 34 | 1.0 | 3.0 | 0.00 | 0.21 | 0.21 | 84 | 1016.9 |
| 20260503130942 | 70 | 37 | 2.0 | 10.0 | 0.00 | 0.21 | 0.21 | 87 | 1015.6 |
| 20260503130434 | 70 | 3 | 3.0 | 9.0 | 0.00 | 0.21 | 0.21 | 88 | 1015.6 |
| 20260503110438 | 69 | 46 | 3.0 | 10.0 | 0.00 | 0.21 | 0.21 | 100 | 1014.4 |
| 20260503090439 | 70 | 316 | 3.0 | 5.0 | 0.07 | 0.07 | 0.07 | 93 | 1013.7 |
| 20260503081440 | 71 | 8 | 1.0 | 6.0 | 0.00 | 0.00 | 0.00 | 89 | 1013.5 |
| 20260503080935 | 71 | 345 | 2.0 | 6.0 | 0.00 | 0.00 | 0.00 | 89 | 1013.5 |
| 20260503080439 | 71 | 11 | 2.0 | 9.0 | 0.00 | 0.00 | 0.00 | 88 | 1013.5 |
| 20260503072438 | 71 | 323 | 1.0 | 4.0 | 0.00 | 0.00 | 0.00 | 88 | 1012.9 |
| 20260503071952 | 71 | 340 | 1.0 | 3.0 | 0.00 | 0.00 | 0.00 | 87 | 1012.9 |
| 20260503071443 | 71 | 328 | 1.0 | 3.0 | 0.00 | 0.00 | 0.00 | 87 | 1012.7 |
| 20260503070939 | 71 | 313 | 1.0 | 3.0 | 0.00 | 0.00 | 0.00 | 87 | 1012.7 |
| 20260503070432 | 71 | 313 | 1.0 | 3.0 | 0.00 | 0.00 | 0.00 | 87 | 1012.7 |
| 20260503054944 | 72 | 281 | 1.0 | 5.0 | 0.00 | 0.00 | 0.00 | 85 | 1013.3 |
| 20260503054458 | 72 | 293 | 1.0 | 6.0 | 0.00 | 0.00 | 0.00 | 85 | 1013.7 |
| 20260503053932 | 72 | 246 | 2.0 | 6.0 | 0.00 | 0.00 | 0.00 | 85 | 1013.7 |
| 20260503053445 | 72 | 288 | 2.0 | 6.0 | 0.00 | 0.00 | 0.00 | 84 | 1013.7 |
| 20260503052940 | 72 | 276 | 2.0 | 7.0 | 0.00 | 0.00 | 0.00 | 84 | 1013.6 |
| 20260503052434 | 72 | 255 | 2.0 | 7.0 | 0.00 | 0.00 | 0.00 | 84 | 1013.6 |
| 20260503051948 | 72 | 243 | 2.0 | 6.0 | 0.00 | 0.00 | 0.00 | 84 | 1013.6 |
| 20260503051442 | 72 | 276 | 1.0 | 6.0 | 0.00 | 0.00 | 0.00 | 84 | 1013.7 |
| 20260503050937 | 72 | 283 | 2.0 | 6.0 | 0.00 | 0.00 | 0.00 | 84 | 1013.7 |
| 20260503050444 | 72 | 229 | 0.0 | 5.0 | 0.00 | 0.00 | 0.00 | 84 | 1013.7 |
| 20260503045939 | 72 | 264 | 2.0 | 5.0 | 0.00 | 0.00 | 0.00 | 84 | 1013.3 |
| 20260503045433 | 73 | 277 | 1.0 | 5.0 | 0.00 | 0.00 | 0.00 | 83 | 1013.3 |
| 20260503044943 | 73 | 262 | 1.0 | 5.0 | 0.00 | 0.00 | 0.00 | 83 | 1013.3 |
| 20260503044438 | 73 | 282 | 3.0 | 5.0 | 0.00 | 0.00 | 0.00 | 83 | 1013.1 |
| 20260503043951 | 73 | 338 | 2.0 | 5.0 | 0.00 | 0.00 | 0.00 | 82 | 1013.1 |
| 20260503043438 | 73 | 316 | 1.0 | 5.0 | 0.00 | 0.00 | 0.00 | 82 | 1013.1 |
| 20260503042932 | 73 | 293 | 3.0 | 4.0 | 0.00 | 0.00 | 0.00 | 82 | 1013.1 |
| 20260503042446 | 73 | 295 | 0.0 | 3.0 | 0.00 | 0.00 | 0.00 | 81 | 1013.1 |
| 20260503042001 | 73 | 278 | 0.0 | 3.0 | 0.00 | 0.00 | 0.00 | 81 | 1013.1 |
| 20260503041433 | 73 | 278 | 1.0 | 5.0 | 0.00 | 0.00 | 0.00 | 80 | 1013.1 |
| 20260503041006 | 73 | 315 | 1.0 | 5.0 | 0.00 | 0.00 | 0.00 | 80 | 1013.1 |
| 20260503035931 | 73 | 279 | 2.0 | 5.0 | 0.00 | 0.00 | 0.00 | 79 | 1013.1 |
| 20260503035445 | 74 | 263 | 2.0 | 5.0 | 0.00 | 0.00 | 0.00 | 79 | 1013.1 |
| 20260503034939 | 74 | 272 | 2.0 | 5.0 | 0.00 | 0.00 | 0.00 | 79 | 1013.1 |
| 20260503034443 | 74 | 281 | 2.0 | 7.0 | 0.00 | 0.00 | 0.00 | 78 | 1013.0 |
| 20260503033937 | 74 | 294 | 2.0 | 7.0 | 0.00 | 0.00 | 0.00 | 78 | 1013.0 |
| 20260503033442 | 74 | 290 | 3.0 | 11.0 | 0.00 | 0.00 | 0.00 | 78 | 1013.0 |
| 20260503032935 | 74 | 317 | 6.0 | 11.0 | 0.00 | 0.00 | 0.00 | 78 | 1012.7 |
| 20260503032443 | 74 | 302 | 4.0 | 10.0 | 0.00 | 0.00 | 0.00 | 78 | 1012.7 |
| 20260503031953 | 74 | 290 | 4.0 | 11.0 | 0.00 | 0.00 | 0.00 | 78 | 1012.7 |
| 20260503031446 | 74 | 337 | 5.0 | 11.0 | 0.00 | 0.00 | 0.00 | 78 | 1012.2 |
| 20260503031004 | 74 | 291 | 3.0 | 7.0 | 0.00 | 0.00 | 0.00 | 78 | 1012.2 |
| 20260503030438 | 74 | 291 | 3.0 | 7.0 | 0.00 | 0.00 | 0.00 | 77 | 1012.2 |
| 20260503025932 | 74 | 311 | 3.0 | 9.0 | 0.00 | 0.00 | 0.00 | 76 | 1011.3 |
| 20260503025447 | 75 | 288 | 2.0 | 9.0 | 0.00 | 0.00 | 0.00 | 76 | 1011.3 |
| 20260503024940 | 75 | 309 | 1.0 | 5.0 | 0.00 | 0.00 | 0.00 | 75 | 1011.3 |
| 20260503024456 | 75 | 235 | 1.0 | 5.0 | 0.00 | 0.00 | 0.00 | 75 | 1011.4 |
| 20260503023940 | 75 | 218 | 2.0 | 4.0 | 0.00 | 0.00 | 0.00 | 75 | 1011.4 |
| 20260503023454 | 75 | 235 | 1.0 | 3.0 | 0.00 | 0.00 | 0.00 | 74 | 1011.4 |
| 20260503022932 | 75 | 241 | 1.0 | 4.0 | 0.00 | 0.00 | 0.00 | 74 | 1011.2 |
| 20260503022444 | 75 | 211 | 1.0 | 4.0 | 0.00 | 0.00 | 0.00 | 73 | 1011.2 |
| 20260503021940 | 76 | 223 | 1.0 | 3.0 | 0.00 | 0.00 | 0.00 | 72 | 1011.2 |
| 20260503021443 | 76 | 193 | 0.0 | 5.0 | 0.00 | 0.00 | 0.00 | 71 | 1010.8 |
| 20260503020937 | 76 | 193 | 2.0 | 12.0 | 0.00 | 0.00 | 0.00 | 70 | 1010.8 |
| 20260503020503 | 77 | 216 | 5.0 | 12.0 | 0.00 | 0.00 | 0.00 | 69 | 1010.8 |
| 20260503015938 | 77 | 214 | 3.0 | 7.0 | 0.00 | 0.00 | 0.00 | 66 | 1010.6 |
| 20260503015504 | 77 | 193 | 3.0 | 7.0 | 0.00 | 0.00 | 0.00 | 66 | 1010.6 |
| 20260503014952 | 77 | 188 | 4.0 | 10.0 | 0.00 | 0.00 | 0.00 | 65 | 1010.6 |
| 20260503014505 | 77 | 232 | 3.0 | 11.0 | 0.00 | 0.00 | 0.00 | 65 | 1010.7 |
| 20260503013958 | 77 | 198 | 2.0 | 11.0 | 0.00 | 0.00 | 0.00 | 64 | 1010.7 |
| 20260503013442 | 77 | 195 | 2.0 | 6.0 | 0.00 | 0.00 | 0.00 | 64 | 1010.7 |
| 20260503012935 | 77 | 194 | 1.0 | 6.0 | 0.00 | 0.00 | 0.00 | 64 | 1010.7 |
| 20260503012501 | 77 | 205 | 2.0 | 7.0 | 0.00 | 0.00 | 0.00 | 64 | 1010.7 |
| 20260503011934 | 77 | 194 | 3.0 | 6.0 | 0.00 | 0.00 | 0.00 | 64 | 1010.7 |
| 20260503011447 | 77 | 216 | 2.0 | 5.0 | 0.00 | 0.00 | 0.00 | 64 | 1010.7 |
| 20260503010940 | 77 | 187 | 1.0 | 4.0 | 0.00 | 0.00 | 0.00 | 64 | 1010.7 |
| 20260503010453 | 77 | 204 | 2.0 | 3.0 | 0.00 | 0.00 | 0.00 | 65 | 1010.7 |
| 20260503005936 | 77 | 217 | 1.0 | 4.0 | 0.00 | 0.00 | 0.00 | 65 | 1010.7 |